TimeEST,TemperatureF,Dew PointF,Humidity,Sea Level PressureIn,VisibilityMPH,Wind Direction,Wind SpeedMPH,Gust SpeedMPH,PrecipitationIn,Events,Conditions,WindDirDegrees,DateUTC
12:15 AM,27.5,26.4,96,30.39,10.0,Calm,Calm,-,N/A,,Clear,0,2012-12-14 05:15:00
12:35 AM,27.3,26.2,96,30.39,10.0,Calm,Calm,-,N/A,,Clear,0,2012-12-14 05:35:00
12:55 AM,28.4,26.6,93,30.39,10.0,Calm,Calm,-,N/A,,Clear,0,2012-12-14 05:55:00
1:15 AM,27.3,25.2,92,30.39,10.0,Calm,Calm,-,N/A,,Clear,0,2012-12-14 06:15:00
1:35 AM,27.5,25.7,93,30.39,10.0,Calm,Calm,-,N/A,,Clear,0,2012-12-14 06:35:00
1:55 AM,26.4,25.0,94,30.39,10.0,Calm,Calm,-,N/A,,Clear,0,2012-12-14 06:55:00
2:15 AM,26.6,24.8,93,30.40,10.0,Calm,Calm,-,N/A,,Clear,0,2012-12-14 07:15:00
2:35 AM,26.2,24.8,94,30.39,10.0,Calm,Calm,-,N/A,,Clear,0,2012-12-14 07:35:00
2:55 AM,26.8,24.4,91,30.38,10.0,Calm,Calm,-,N/A,,Clear,0,2012-12-14 07:55:00
3:15 AM,26.4,24.1,91,30.38,10.0,Calm,Calm,-,N/A,,Clear,0,2012-12-14 08:15:00
3:35 AM,25.2,23.5,94,30.37,10.0,Calm,Calm,-,N/A,,Clear,0,2012-12-14 08:35:00
3:55 AM,25.0,24.1,96,30.37,10.0,Calm,Calm,-,N/A,,Clear,0,2012-12-14 08:55:00
4:15 AM,25.7,23.9,93,30.39,10.0,Calm,Calm,-,N/A,,Clear,0,2012-12-14 09:15:00
4:35 AM,25.0,23.2,93,30.38,10.0,Calm,Calm,-,N/A,,Clear,0,2012-12-14 09:35:00
4:55 AM,25.7,24.4,95,30.39,10.0,Calm,Calm,-,N/A,,Clear,0,2012-12-14 09:55:00
5:15 AM,24.8,23.0,93,30.38,10.0,Calm,Calm,-,N/A,,Clear,0,2012-12-14 10:15:00
5:35 AM,24.4,23.4,96,30.38,10.0,Calm,Calm,-,N/A,,Clear,0,2012-12-14 10:35:00
5:55 AM,24.8,23.0,93,30.38,10.0,Calm,Calm,-,N/A,,Clear,0,2012-12-14 10:55:00
6:15 AM,25.7,24.1,94,30.40,10.0,Calm,Calm,-,N/A,,Clear,0,2012-12-14 11:15:00
6:35 AM,23.7,22.1,94,30.41,10.0,Calm,Calm,-,N/A,,Clear,0,2012-12-14 11:35:00
6:55 AM,24.8,23.0,93,30.41,10.0,Calm,Calm,-,N/A,,Clear,0,2012-12-14 11:55:00
7:15 AM,23.5,21.9,94,30.42,10.0,Calm,Calm,-,N/A,,Clear,0,2012-12-14 12:15:00
7:35 AM,23.5,21.7,93,30.41,10.0,Calm,Calm,-,N/A,,Clear,0,2012-12-14 12:35:00
7:55 AM,23.9,21.7,91,30.39,10.0,Calm,Calm,-,N/A,,Clear,0,2012-12-14 12:55:00
8:15 AM,26.6,25.2,94,30.40,10.0,Calm,Calm,-,N/A,,Clear,0,2012-12-14 13:15:00
8:35 AM,29.5,28.2,95,30.40,10.0,Calm,Calm,-,N/A,,Clear,0,2012-12-14 13:35:00
8:55 AM,32.9,31.1,93,30.41,10.0,Calm,Calm,-,N/A,,Clear,0,2012-12-14 13:55:00
9:15 AM,36.7,32.2,84,30.41,10.0,Calm,Calm,-,N/A,,Clear,0,2012-12-14 14:15:00
9:35 AM,39.6,32.4,75,30.42,10.0,Calm,Calm,-,N/A,,Clear,0,2012-12-14 14:35:00
9:55 AM,42.3,30.7,64,30.42,10.0,Calm,Calm,-,N/A,,Clear,0,2012-12-14 14:55:00
10:15 AM,44.8,32.4,62,30.42,10.0,Calm,Calm,-,N/A,,Clear,0,2012-12-14 15:15:00
10:35 AM,47.1,32.7,57,30.42,10.0,Calm,Calm,-,N/A,,Clear,0,2012-12-14 15:35:00
10:55 AM,48.6,30.9,51,30.42,10.0,West,3.5,-,N/A,,Clear,270,2012-12-14 15:55:00
11:15 AM,50.0,30.2,47,30.41,10.0,Calm,Calm,-,N/A,,Clear,0,2012-12-14 16:15:00
11:35 AM,50.7,28.0,42,30.39,7.0,NNE,4.6,-,N/A,,Clear,20,2012-12-14 16:35:00
11:55 AM,52.2,27.1,38,30.38,10.0,Calm,Calm,-,N/A,,Clear,0,2012-12-14 16:55:00
12:15 PM,52.9,26.6,36,30.36,10.0,Calm,Calm,-,N/A,,Clear,0,2012-12-14 17:15:00
12:35 PM,54.3,27.7,36,30.35,10.0,Calm,Calm,-,N/A,,Clear,0,2012-12-14 17:35:00
12:55 PM,53.6,26.6,35,30.33,10.0,Calm,Calm,-,N/A,,Clear,0,2012-12-14 17:55:00
1:15 PM,55.8,28.6,35,30.33,10.0,Calm,Calm,-,N/A,,Clear,0,2012-12-14 18:15:00
1:35 PM,57.0,28.4,34,30.32,10.0,Calm,Calm,-,N/A,,Clear,0,2012-12-14 18:35:00
1:55 PM,56.5,27.9,33,30.32,10.0,Calm,Calm,-,N/A,,Clear,0,2012-12-14 18:55:00
2:15 PM,57.2,28.2,33,30.30,10.0,Calm,Calm,-,N/A,,Clear,0,2012-12-14 19:15:00
2:35 PM,57.2,26.6,31,30.29,10.0,Calm,Calm,-,N/A,,Clear,0,2012-12-14 19:35:00
2:55 PM,57.2,27.0,31,30.28,10.0,Calm,Calm,-,N/A,,Clear,0,2012-12-14 19:55:00
3:15 PM,57.4,27.1,31,30.28,10.0,Calm,Calm,-,N/A,,Clear,0,2012-12-14 20:15:00
3:35 PM,57.7,27.7,32,30.28,10.0,SE,3.5,-,N/A,,Clear,130,2012-12-14 20:35:00
3:55 PM,56.5,27.0,32,30.28,10.0,Calm,Calm,-,N/A,,Clear,0,2012-12-14 20:55:00
4:15 PM,55.4,26.6,33,30.28,10.0,Calm,Calm,-,N/A,,Clear,0,2012-12-14 21:15:00
4:35 PM,55.8,27.5,34,30.27,10.0,Calm,Calm,-,N/A,,Clear,0,2012-12-14 21:35:00
4:55 PM,51.6,27.9,40,30.28,10.0,Calm,Calm,-,N/A,,Clear,0,2012-12-14 21:55:00
5:15 PM,47.1,30.2,52,30.28,10.0,Calm,Calm,-,N/A,,Clear,0,2012-12-14 22:15:00
5:35 PM,42.1,31.1,65,30.28,10.0,Calm,Calm,-,N/A,,Clear,0,2012-12-14 22:35:00
5:55 PM,41.0,32.0,70,30.28,10.0,Calm,Calm,-,N/A,,Clear,0,2012-12-14 22:55:00
6:15 PM,39.0,29.7,69,30.28,10.0,Calm,Calm,-,N/A,,Clear,0,2012-12-14 23:15:00
6:35 PM,37.9,29.3,71,30.28,10.0,Calm,Calm,-,N/A,,Clear,0,2012-12-14 23:35:00
6:55 PM,36.0,29.1,76,30.29,10.0,Calm,Calm,-,N/A,,Clear,0,2012-12-14 23:55:00
7:15 PM,35.2,28.2,76,30.29,10.0,Calm,Calm,-,N/A,,Clear,0,2012-12-15 00:15:00
7:35 PM,33.4,28.8,83,30.29,10.0,Calm,Calm,-,N/A,,Clear,0,2012-12-15 00:35:00
7:55 PM,33.6,28.0,80,30.29,10.0,Calm,Calm,-,N/A,,Clear,0,2012-12-15 00:55:00
8:15 PM,32.2,28.2,85,30.29,10.0,Calm,Calm,-,N/A,,Clear,0,2012-12-15 01:15:00
8:35 PM,31.3,27.5,86,30.29,10.0,Calm,Calm,-,N/A,,Clear,0,2012-12-15 01:35:00
8:55 PM,32.0,28.4,87,30.29,10.0,Calm,Calm,-,N/A,,Clear,0,2012-12-15 01:55:00
9:15 PM,29.5,26.6,89,30.30,10.0,Calm,Calm,-,N/A,,Clear,0,2012-12-15 02:15:00
9:35 PM,29.8,26.8,88,30.30,10.0,Calm,Calm,-,N/A,,Clear,0,2012-12-15 02:35:00
9:55 PM,30.2,26.8,87,30.30,10.0,Calm,Calm,-,N/A,,Clear,0,2012-12-15 02:55:00
10:15 PM,29.8,27.0,89,30.30,10.0,Calm,Calm,-,N/A,,Clear,0,2012-12-15 03:15:00
10:35 PM,30.2,26.6,86,30.30,10.0,Calm,Calm,-,N/A,,Clear,0,2012-12-15 03:35:00
10:55 PM,30.4,27.3,88,30.30,10.0,Calm,Calm,-,N/A,,Clear,0,2012-12-15 03:55:00
11:15 PM,30.2,27.0,88,30.30,10.0,Calm,Calm,-,N/A,,Clear,0,2012-12-15 04:15:00
11:35 PM,30.0,27.3,90,30.29,10.0,Calm,Calm,-,N/A,,Clear,0,2012-12-15 04:35:00
11:55 PM,30.7,27.3,87,30.30,10.0,Calm,Calm,-,N/A,,Clear,0,2012-12-15 04:55:00